Change the Weather History Date:

Monday, December 2, 2013

  Actual Average (KLBF) Record (KLBF)
Temperature  
Mean Temperature 48 °F 28 °F  
Max Temperature 64 °F 42 °F 69 °F (1885)
Min Temperature 32 °F 14 °F -10 °F (1919)
Degree Days  
Heating Degree Days 17 37  
Month to date heating degree days 74  
Since 1 July heating degree days 1625  
Cooling Degree Days 0 0  
Month to date cooling degree days 0  
Year to date cooling degree days 768  
Moisture  
Dew Point 30 °F    
Average Humidity 57    
Maximum Humidity 85    
Minimum Humidity 25    
Precipitation  
Precipitation 0.00 in 0.02 in 0.70 in (1978)
Month to date precipitation 0.03  
Year to date precipitation 19.85  
Snow  
Snow 0.00 in 0.20 in 7.60 in (1978)
Month to date snowfall 0.3  
Since 1 July snowfall 6.5  
Snow Depth -    
Sea Level Pressure  
Sea Level Pressure 29.59 in    
Wind  
Wind Speed 7 mph (West)    
Max Wind Speed 14 mph    
Max Gust Speed 21 mph    
Visibility 10 miles    
Events      
T = Trace of Precipitation, MM = Missing Value Source: NWS Daily Summary

Daily Weather History Graph

Daily Weather History Graph

Search for Another Location

Airport or City:

Trip Planner

Search our weather history database for the weather conditions in past years. The results will help you decide how hot, cold, wet, or windy it might be!

Date:

Astronomy

Dec. 02, 2013 Rise Set
Actual Time 7:51 AM CST 5:11 PM CST
Civil Twilight 7:20 AM CST 5:42 PM CST
Nautical Twilight 6:46 AM CST 6:17 PM CST
Astronomical Twilight 6:12 AM CST 6:51 PM CST
Moon 7:18 AM CST (12/2) 5:16 PM CST (12/2)
Length of Visible Light 10h 21m
Length of Day
9h 19m
Waning Crescent, 0% of the Moon is Illuminated
Dec 2
Waning Crescent
Dec 2
New
Dec 9
First Quarter
Dec 17
Full
Dec 25
Last Quarter

Hourly Weather History & Observations

Time (CST) Temp. Windchill Dew Point Humidity Pressure Visibility Wind Dir Wind Speed Gust Speed Precip Events Conditions
12:15 AM 44.6 °F 40.7 °F 29.7 °F 56% 29.73 in 10.0 mi SW 6.9 mph - N/A   Overcast
12:35 AM 44.8 °F 40.4 °F 29.7 °F 55% 29.72 in 10.0 mi WSW 8.1 mph - N/A   Mostly Cloudy
12:55 AM 45.3 °F 40.6 °F 29.5 °F 54% 29.71 in 10.0 mi WSW 9.2 mph - N/A   Scattered Clouds
1:15 AM 44.6 °F 39.7 °F 29.3 °F 55% 29.71 in 10.0 mi WSW 9.2 mph - N/A   Clear
1:35 AM 44.6 °F 40.7 °F 29.3 °F 55% 29.69 in 10.0 mi WSW 6.9 mph - N/A   Clear
1:55 AM 44.8 °F 39.0 °F 28.9 °F 54% 29.68 in 10.0 mi WSW 11.5 mph - N/A   Clear
2:15 AM 45.5 °F 39.6 °F 28.8 °F 52% 29.68 in 10.0 mi WSW 12.7 mph 20.7 mph N/A   Clear
2:35 AM 45.9 °F 40.0 °F 28.8 °F 51% 29.69 in 10.0 mi West 12.7 mph 18.4 mph N/A   Clear
2:55 AM 45.3 °F 40.1 °F 28.8 °F 52% 29.69 in 10.0 mi West 10.4 mph - N/A   Clear
3:15 AM 44.4 °F 38.6 °F 28.9 °F 55% 29.68 in 10.0 mi WSW 11.5 mph - N/A   Clear
3:35 AM 43.7 °F 38.6 °F 29.1 °F 57% 29.67 in 10.0 mi West 9.2 mph - N/A   Clear
3:55 AM 42.3 °F 35.5 °F 29.3 °F 60% 29.67 in 10.0 mi West 12.7 mph - N/A   Clear
4:15 AM 43.2 °F 37.9 °F 29.5 °F 59% 29.66 in 10.0 mi West 9.2 mph - N/A   Clear
4:35 AM 42.1 °F 37.1 °F 29.7 °F 61% 29.66 in 10.0 mi WNW 8.1 mph - N/A   Clear
4:55 AM 41.0 °F 35.2 °F 29.7 °F 64% 29.66 in 10.0 mi West 9.2 mph - N/A   Clear
5:15 AM 39.9 °F 35.1 °F 29.7 °F 67% 29.65 in 10.0 mi West 6.9 mph - N/A   Clear
5:35 AM 38.3 °F 32.5 °F 29.3 °F 70% 29.65 in 10.0 mi West 8.1 mph - N/A   Clear
5:55 AM 39.2 °F 33.6 °F 29.7 °F 69% 29.64 in 10.0 mi West 8.1 mph - N/A   Clear
6:15 AM 39.2 °F 33.0 °F 29.7 °F 69% 29.65 in 10.0 mi West 9.2 mph - N/A   Clear
6:35 AM 37.0 °F 32.4 °F 29.1 °F 73% 29.65 in 10.0 mi SW 5.8 mph - N/A   Clear
6:55 AM 34.7 °F 30.6 °F 28.4 °F 78% 29.65 in 10.0 mi West 4.6 mph - N/A   Clear
7:15 AM 34.7 °F 29.6 °F 28.4 °F 78% 29.64 in 10.0 mi SW 5.8 mph - N/A   Clear
7:35 AM 35.1 °F 31.0 °F 28.8 °F 78% 29.63 in 10.0 mi SW 4.6 mph - N/A   Clear
7:55 AM 35.2 °F - 28.6 °F 77% 29.62 in 10.0 mi Calm Calm - N/A   Clear
8:15 AM 35.6 °F 31.7 °F 29.1 °F 77% 29.63 in 10.0 mi West 4.6 mph - N/A   Clear
8:35 AM 35.6 °F 30.7 °F 29.1 °F 77% 29.62 in 10.0 mi West 5.8 mph - N/A   Clear
8:55 AM 39.0 °F 36.8 °F 30.6 °F 72% 29.62 in 10.0 mi West 3.5 mph - N/A   Clear
9:15 AM 41.9 °F 37.5 °F 31.1 °F 66% 29.62 in 10.0 mi West 6.9 mph - N/A   Clear
9:35 AM 44.4 °F 40.0 °F 31.6 °F 61% 29.62 in 10.0 mi West 8.1 mph - N/A   Clear
9:55 AM 44.8 °F 43.3 °F 32.0 °F 61% 29.62 in 10.0 mi NW 3.5 mph - N/A   Clear
10:15 AM 46.4 °F - 32.0 °F 57% 29.62 in 10.0 mi Calm Calm - N/A   Clear
10:35 AM 51.1 °F - 32.0 °F 48% 29.61 in 10.0 mi WNW 5.8 mph - N/A   Clear
10:55 AM 54.1 °F - 32.0 °F 43% 29.60 in 10.0 mi WNW 8.1 mph - N/A   Clear
11:15 AM 56.3 °F - 31.3 °F 39% 29.59 in 10.0 mi WNW 8.1 mph - N/A   Scattered Clouds
11:35 AM 56.5 °F - 31.5 °F 39% 29.59 in 10.0 mi WNW 6.9 mph - N/A   Mostly Cloudy
11:55 AM 57.9 °F - 31.1 °F 36% 29.57 in 10.0 mi NW 6.9 mph - N/A   Overcast
12:15 PM 59.7 °F - 30.2 °F 33% 29.57 in 10.0 mi WNW 10.4 mph 16.1 mph N/A   Overcast
12:35 PM 61.7 °F - 29.8 °F 30% 29.56 in 10.0 mi WNW 8.1 mph - N/A   Mostly Cloudy
12:55 PM 62.1 °F - 29.3 °F 29% 29.55 in 10.0 mi NW 9.2 mph 16.1 mph N/A   Scattered Clouds
1:15 PM 62.6 °F - 29.3 °F 28% 29.54 in 10.0 mi NW 6.9 mph - N/A   Clear
1:35 PM 63.7 °F - 29.1 °F 27% 29.53 in 10.0 mi West 8.1 mph - N/A   Clear
1:55 PM 63.7 °F - 28.4 °F 26% 29.52 in 10.0 mi WNW 13.8 mph 17.3 mph N/A   Clear
2:15 PM 63.5 °F - 28.4 °F 27% 29.51 in 10.0 mi West 10.4 mph 16.1 mph N/A   Clear
2:35 PM 63.9 °F - 28.2 °F 26% 29.51 in 10.0 mi WNW 10.4 mph 16.1 mph N/A   Clear
2:55 PM 64.4 °F - 27.7 °F 25% 29.50 in 10.0 mi WNW 13.8 mph 18.4 mph N/A   Clear
3:15 PM 63.1 °F - 27.9 °F 26% 29.50 in 10.0 mi WNW 10.4 mph 18.4 mph N/A   Clear
3:35 PM 62.8 °F - 28.6 °F 27% 29.50 in 10.0 mi NW 6.9 mph - N/A   Clear
3:55 PM 62.2 °F - 28.4 °F 28% 29.51 in 10.0 mi NNW 11.5 mph 16.1 mph N/A   Clear
4:15 PM 59.0 °F - 29.3 °F 32% 29.51 in 10.0 mi Calm Calm - N/A   Clear
4:35 PM 56.5 °F - 30.2 °F 37% 29.52 in 10.0 mi Calm Calm - N/A   Clear
4:55 PM 55.8 °F - 30.4 °F 38% 29.52 in 10.0 mi Calm Calm - N/A   Clear
5:15 PM 52.0 °F - 30.7 °F 44% 29.52 in 10.0 mi Calm Calm - N/A   Clear
5:35 PM 50.4 °F - 30.7 °F 47% 29.53 in 10.0 mi Calm Calm - N/A   Clear
5:55 PM 48.2 °F - 30.6 °F 51% 29.53 in 10.0 mi Calm Calm - N/A   Clear
6:15 PM 44.2 °F - 30.4 °F 58% 29.53 in 10.0 mi Calm Calm - N/A   Clear
6:35 PM 43.5 °F - 30.7 °F 61% 29.54 in 10.0 mi Calm Calm - N/A   Clear
6:55 PM 41.9 °F - 30.2 °F 63% 29.53 in 10.0 mi Calm Calm - N/A   Clear
7:15 PM 41.7 °F - 30.0 °F 63% 29.53 in 10.0 mi Calm Calm - N/A   Clear
7:35 PM 39.2 °F - 29.8 °F 69% 29.53 in 10.0 mi Calm Calm - N/A   Clear
7:55 PM 37.6 °F - 29.5 °F 73% 29.53 in 10.0 mi Calm Calm - N/A   Clear
8:15 PM 37.2 °F - 29.3 °F 73% 29.53 in 10.0 mi Calm Calm - N/A   Clear
8:35 PM 36.7 °F - 29.7 °F 76% 29.53 in 10.0 mi Calm Calm - N/A   Clear
8:55 PM 36.0 °F - 28.9 °F 76% 29.52 in 10.0 mi Calm Calm - N/A   Clear
9:15 PM 35.6 °F 32.8 °F 29.1 °F 77% 29.53 in 10.0 mi West 3.5 mph - N/A   Clear
9:35 PM 35.8 °F 33.0 °F 29.7 °F 78% 29.53 in 10.0 mi SSW 3.5 mph - N/A   Clear
9:55 PM 35.1 °F - 28.9 °F 78% 29.53 in 10.0 mi Calm Calm - N/A   Clear
10:15 PM 32.5 °F - 28.2 °F 84% 29.53 in 10.0 mi Calm Calm - N/A   Clear
10:35 PM 34.3 °F 31.4 °F 30.0 °F 84% 29.53 in 10.0 mi West 3.5 mph - N/A   Clear
10:55 PM 33.8 °F - 29.1 °F 83% 29.53 in 10.0 mi Calm Calm - N/A   Clear
11:15 PM 33.6 °F - 29.3 °F 84% 29.53 in 10.0 mi Calm Calm - N/A   Clear
11:35 PM 34.3 °F - 30.2 °F 85% 29.52 in 10.0 mi Calm Calm - N/A   Mostly Cloudy
11:55 PM 36.3 °F - 31.1 °F 81% 29.52 in 10.0 mi Calm Calm - N/A   Overcast